Weather History for Pope Field Airport, NC

Change the Weather History Date:

Saturday, December 1, 2012

  Actual Average Record
Temperature  
Mean Temperature 48 °F -  
Max Temperature 67 °F 60 °F 78 °F (1991)
Min Temperature 30 °F 39 °F 23 °F (1999)
Degree Days  
Heating Degree Days 16    
Moisture  
Dew Point 38 °F    
Average Humidity 78    
Maximum Humidity 96    
Minimum Humidity 42    
Precipitation  
Precipitation 0.00 in - - ()
Sea Level Pressure  
Sea Level Pressure 30.37 in    
Wind  
Wind Speed 1 mph (North)    
Max Wind Speed 7 mph    
Max Gust Speed -    
Visibility 10 miles    
Events      
Averages and records for this station are not official NWS values.
T = Trace of Precipitation, MM = Missing Value Source: NWS Daily Summary

Daily Weather History Graph

Daily Weather History Graph

Search for Another Location

Airport:

Trip Planner

Search our weather history database for the weather conditions in past years. The results will help you decide how hot, cold, wet, or windy it might be!

Date:

Astronomy

Dec. 01, 2012 Rise Set
Actual Time 7:06 AM EST 5:03 PM EST
Civil Twilight 6:38 AM EST 5:31 PM EST
Nautical Twilight 6:07 AM EST 6:03 PM EST
Astronomical Twilight 5:36 AM EST 6:33 PM EST
Moon 7:50 PM EST (12/1) 9:19 AM EST (12/1)
Length of Visible Light 10h 53m
Length of Day
9h 57m
Waning Gibbous, 92% of the Moon is Illuminated
Dec 1
Waning Gibbous
Dec 6
Last Quarter
Dec 13
New
Dec 20
First Quarter
Dec 28
Full

Hourly Weather History & Observations

Time (EST) Temp. Dew Point Humidity Pressure Visibility Wind Dir Wind Speed Gust Speed Precip Events Conditions
12:55 AM 35.2 °F 33.3 °F 92% 30.34 in 10.0 mi Calm Calm - N/A   Clear
1:55 AM 33.6 °F 32.7 °F 96% 30.35 in 10.0 mi Calm Calm - N/A   Clear
2:55 AM 35.1 °F 33.1 °F 92% 30.35 in 10.0 mi Calm Calm - N/A   Clear
3:55 AM 33.6 °F 32.2 °F 94% 30.35 in 10.0 mi Calm Calm - N/A   Clear
4:55 AM 33.1 °F 31.3 °F 93% 30.35 in 10.0 mi Calm Calm - N/A   Clear
5:55 AM 30.9 °F 30.0 °F 96% 30.35 in 10.0 mi Calm Calm - N/A   Clear
6:55 AM 31.3 °F 30.0 °F 95% 30.38 in 10.0 mi Calm Calm - N/A   Clear
7:55 AM 33.3 °F 31.6 °F 94% 30.40 in 10.0 mi Calm Calm - N/A   Clear
8:55 AM 39.9 °F 36.5 °F 88% 30.42 in 10.0 mi Calm Calm - N/A   Clear
9:55 AM 48.6 °F 40.8 °F 75% 30.43 in 10.0 mi Calm Calm - N/A   Clear
10:55 AM 57.2 °F 44.2 °F 62% 30.41 in 10.0 mi Variable 4.6 mph - N/A   Clear
11:55 AM 63.5 °F 45.3 °F 52% 30.38 in 10.0 mi Variable 5.8 mph - N/A   Clear
12:55 PM 66.4 °F 45.9 °F 48% 30.35 in 10.0 mi Variable 6.9 mph - N/A   Clear
1:55 PM 66.4 °F 45.7 °F 47% 30.34 in 10.0 mi Variable 3.5 mph - N/A   Clear
2:55 PM 67.5 °F 43.7 °F 42% 30.33 in 10.0 mi Variable 4.6 mph - N/A   Clear
3:55 PM 66.2 °F 42.3 °F 42% 30.33 in 10.0 mi North 4.6 mph - N/A   Clear
4:55 PM 61.5 °F 42.3 °F 49% 30.34 in 10.0 mi Calm Calm - N/A   Clear
5:55 PM 51.6 °F 42.1 °F 70% 30.35 in 10.0 mi Calm Calm - N/A   Clear
6:55 PM 47.7 °F 42.1 °F 81% 30.37 in 10.0 mi Calm Calm - N/A   Clear
7:55 PM 44.6 °F 41.0 °F 87% 30.37 in 10.0 mi Calm Calm - N/A   Clear
8:55 PM 42.4 °F 40.1 °F 91% 30.38 in 10.0 mi Calm Calm - N/A   Clear
9:55 PM 41.2 °F 39.7 °F 95% 30.39 in 10.0 mi Calm Calm - N/A   Clear
10:55 PM 39.7 °F 38.3 °F 95% 30.38 in 10.0 mi Calm Calm - N/A   Clear
11:55 PM 38.1 °F 36.9 °F 95% 30.38 in 10.0 mi Calm Calm - N/A   Clear